Location: Poughquag
(41.6090°N, 73.6820°W)
Time: 14:46:18
(UTC-04:00)

Altair - Pass Details

Date: 01 June 2020
Orbit: 1501 x 1683 km, 47.2° (Epoch: 05 July)

Event Time Altitude Azimuth Distance (km) Brightness Sun altitude
Rises 00:19:18 0° 260° (W) 4,857 10.1 -25.8°
Reaches altitude 10° 00:22:27 10° 263° (W) 3,891 9.6 -25.9°
Maximum altitude 00:32:28 70° 347° (NNW) 1,767 7.9 -26.1°
Drops below altitude 10° 00:42:39 10° 71° (ENE) 3,946 9.8 -26.2°
Sets 00:45:52 0° 74° (ENE) 4,929 10.3 -26.3°
